Weather History for Charlottetown, PE

Change the Weather History Date:

Saturday, June 23, 2012

  Actual Average Record
Temperature  
Mean Temperature 60 °F -  
Max Temperature 64 °F 72 °F 80 °F (2013)
Min Temperature 55 °F 54 °F 41 °F (2011)
Degree Days  
Heating Degree Days 6    
Growing Degree Days 10 (Base 50)    
Moisture  
Dew Point 55 °F    
Average Humidity 86    
Maximum Humidity 100    
Minimum Humidity 60    
Precipitation  
Precipitation 0.08 in 0.11 in - ()
Sea Level Pressure  
Sea Level Pressure 29.92 in    
Wind  
Wind Speed 10 mph ()    
Max Wind Speed 17 mph    
Max Gust Speed -    
Visibility 14.4 miles    
Events Rain    
Averages and records for this station are not official NWS values.
T = Trace of Precipitation, MM = Missing Value Source: Averaged Metar Reports

Daily Weather History Graph

Daily Weather History Graph

Search for Another Location

Airport:

Trip Planner

Search our weather history database for the weather conditions in past years. The results will help you decide how hot, cold, wet, or windy it might be!

Date:

Astronomy

Jun. 23, 2012 Rise Set
Actual Time 5:21 AM ADT 9:08 PM ADT
Civil Twilight 4:42 AM ADT 9:47 PM ADT
Nautical Twilight 3:49 AM ADT 10:40 PM ADT
Astronomical Twilight 2:34 AM ADT 11:55 PM ADT
Moon 9:32 AM ADT (6/23) 11:18 PM ADT (6/23)
Length of Visible Light 17h 05m
Length of Day
15h 47m
Waxing Crescent, 15% of the Moon is Illuminated
Jun 23
Waxing Crescent
Jun 27
First Quarter
Jul 3
Full
Jul 10
Last Quarter
Jul 19
New

Hourly Weather History & Observations

Time (ADT) Temp. Dew Point Humidity Pressure Visibility Wind Dir Wind Speed Gust Speed Precip Events Conditions
12:00 AM 59.0 °F 57.2 °F 94% 29.87 in 15.0 mi South 11.5 mph - N/A Rain Light Rain Showers
12:52 AM 59.0 °F - N/A% - 12.0 mi South 10.4 mph - N/A Rain Light Rain Showers
1:00 AM 59.0 °F 57.2 °F 94% 29.87 in 12.0 mi South 10.4 mph - N/A Rain Light Rain Showers
2:00 AM 59.0 °F 57.2 °F 94% 29.87 in 12.0 mi South 15.0 mph - N/A Rain Light Rain Showers
3:00 AM 58 °F 57 °F 94% 29.87 in 10 mi South 11.5 mph - - Rain Light Rain Showers
3:00 AM 57.2 °F 57.2 °F 100% 29.87 in 10.0 mi South 11.5 mph - N/A Rain Light Rain Showers
4:00 AM 57.2 °F 57.2 °F 100% 29.88 in 15.0 mi South 10.4 mph - N/A Rain Light Rain Showers
5:00 AM 57.2 °F 57.2 °F 100% 29.89 in 15.0 mi South 9.2 mph - N/A Rain Light Rain Showers
6:00 AM 57.2 °F 55.4 °F 94% 29.89 in 15.0 mi South 12.7 mph - N/A Rain Light Rain Showers
6:46 AM 57.2 °F - N/A% - 15.0 mi South 12.7 mph - N/A   Overcast
7:00 AM 57.2 °F 55.4 °F 94% 29.91 in 15.0 mi SSE 10.4 mph - N/A   Overcast
8:00 AM 57.2 °F 55.4 °F 94% 29.91 in 15.0 mi South 11.5 mph - N/A   Overcast
9:00 AM 59.0 °F 55.4 °F 88% 29.93 in 15.0 mi SSE 13.8 mph - N/A   Overcast
10:00 AM 60.8 °F 57.2 °F 88% 29.93 in 15.0 mi SSE 13.8 mph - N/A   Mostly Cloudy
11:00 AM 60.8 °F 55.4 °F 82% 29.93 in 15.0 mi South 15.0 mph - N/A   Mostly Cloudy
12:00 PM 62.6 °F 55.4 °F 77% 29.94 in 15.0 mi South 15.0 mph - N/A   Mostly Cloudy
1:00 PM 62.6 °F 55.4 °F 77% 29.94 in 15.0 mi SSE 15.0 mph - N/A   Mostly Cloudy
2:00 PM 64.4 °F 53.6 °F 68% 29.94 in 15.0 mi SSE 15.0 mph - N/A   Mostly Cloudy
3:00 PM 64 °F 54 °F 60% 29.93 in 15 mi SSE 17.3 mph - -   Mostly Cloudy
3:00 PM 64.4 °F 53.6 °F 68% 29.93 in 15.0 mi SSE 17.3 mph - N/A   Mostly Cloudy
4:00 PM 64.4 °F 53.6 °F 68% 29.93 in 15.0 mi SSE 11.5 mph - N/A   Overcast
5:00 PM 62.6 °F 53.6 °F 72% 29.94 in 15.0 mi SSW 9.2 mph - N/A   Overcast
6:00 PM 62.6 °F 53.6 °F 72% 29.95 in 15.0 mi SSW 4.6 mph - N/A   Overcast
6:14 PM 62.6 °F - N/A% - 15.0 mi South 6.9 mph - N/A Rain Light Rain Showers
7:00 PM 60.8 °F 55.4 °F 82% 29.95 in 15.0 mi SE 6.9 mph - N/A Rain Light Rain Showers
8:00 PM 59.0 °F 55.4 °F 88% 29.96 in 15.0 mi SSE 9.2 mph - N/A Rain Light Rain Showers
9:00 PM 58 °F 56 °F 89% 29.95 in 15 mi SSE 8.1 mph - - Rain Light Rain Showers
9:00 PM 57.2 °F 55.4 °F 94% 29.95 in 15.0 mi SSE 8.1 mph - N/A Rain Light Rain Showers
10:00 PM 57.2 °F 53.6 °F 88% 29.95 in 15.0 mi SSE 9.2 mph - N/A Rain Light Rain Showers
11:00 PM 55.4 °F 53.6 °F 94% 29.94 in 15.0 mi ESE 9.2 mph - N/A Rain Light Rain Showers
11:40 PM 55.4 °F - N/A% - 15.0 mi ESE 11.5 mph - N/A   Overcast